DW2806 Weather Reports


time (UTC)temp
F
wind
direction
speed
knots
gust
knots
rain 1hr
in
rain 24hr
in
rain mn
in
humidity
%
barometer
mb
20260502190027 55 235 0.0 4.3 0.00 0.00 0.00 76 1025.7
20260502184521 56 266 0.9 6.1 0.00 0.00 0.00 76 1025.7
20260502183021 56 250 0.0 4.3 0.00 0.00 0.00 75 1025.7
20260502181520 56 251 0.0 1.7 0.00 0.00 0.00 76 1025.7
20260502163024 54 278 0.0 3.5 0.00 0.00 0.00 79 1025.7
20260502161517 55 281 0.0 0.0 0.00 0.00 0.00 79 1025.7
20260502151504 52 131 0.0 0.9 0.00 0.00 0.00 83 1025.7
20260502130104 46 104 0.0 0.0 0.00 0.00 0.00 88 1025.7
20260502123109 46 108 0.0 0.0 0.00 0.00 0.00 89 1025.7
20260502121538 46 108 0.0 0.0 0.00 0.00 0.00 89 1025.7
20260502114540 46 108 0.0 0.0 0.00 0.00 0.00 87 1025.7
20260502113037 47 108 0.0 0.0 0.00 0.00 0.00 87 1025.7
20260502111534 46 108 0.0 0.0 0.00 0.00 0.00 87 1025.7
20260502110044 45 108 0.0 0.0 0.00 0.00 0.00 88 1025.7
20260502104529 45 108 0.0 0.0 0.00 0.00 0.00 88 1025.7
20260502103032 44 108 0.0 0.0 0.00 0.00 0.00 87 1025.7
20260502101526 45 108 0.0 0.0 0.00 0.00 0.00 87 1025.7
20260502091521 44 108 0.0 0.0 0.00 0.00 0.00 88 1025.7
20260502071512 42 108 0.0 0.0 0.00 0.00 0.00 88 1025.7
20260502070012 42 108 0.0 0.0 0.00 0.00 0.00 87 1025.7
20260502064511 42 108 0.0 0.0 0.00 0.00 0.00 87 1025.7
20260502063011 41 108 0.0 0.0 0.00 0.00 0.00 87 1025.7
20260502061507 41 108 0.0 0.0 0.00 0.00 0.00 85 1025.7
20260502060005 42 108 0.0 0.0 0.00 0.00 0.00 84 1025.7
20260502054505 42 108 0.0 0.0 0.00 0.00 0.00 84 1025.7
20260502053003 43 108 0.0 0.0 0.00 0.00 0.00 83 1025.7
20260502051503 43 108 0.0 0.0 0.00 0.00 0.00 82 1025.7
20260502050003 43 108 0.0 0.0 0.00 0.00 0.00 81 1025.7
20260502044601 44 108 0.0 0.0 0.00 0.00 0.00 81 1025.7
20260502043117 43 108 0.0 0.0 0.00 0.00 0.00 82 1025.7
20260502041558 43 108 0.0 0.0 0.00 0.00 0.00 83 1025.7
20260502040105 42 108 0.0 0.0 0.00 0.00 0.00 84 1025.7
20260502034602 42 108 0.0 0.0 0.00 0.00 0.00 82 1025.7
20260502033056 42 108 0.0 0.0 0.00 0.00 0.00 80 1025.7
20260502031551 43 108 0.0 0.0 0.00 0.00 0.00 79 1025.7
20260502030050 43 108 0.0 0.0 0.00 0.00 0.00 79 1025.7
20260502024607 43 108 0.0 0.0 0.00 0.00 0.00 77 1025.7
20260502023048 44 108 0.0 0.0 0.00 0.00 0.00 76 1025.7
20260502021550 44 108 0.0 0.0 0.00 0.00 0.00 72 1025.7
20260502020047 45 108 0.0 0.0 0.00 0.00 0.00 70 1025.7
20260502014546 46 108 0.0 0.0 0.00 0.00 0.00 67 1025.7
20260502013046 47 108 0.0 0.0 0.00 0.00 0.00 64 1025.7
20260502011546 48 108 0.0 0.0 0.00 0.00 0.00 62 1025.7
20260502010052 49 108 0.0 0.0 0.00 0.00 0.00 59 1025.7
20260502004558 50 108 0.0 0.0 0.00 0.00 0.00 55 1025.7
20260502003044 52 108 0.0 0.0 0.00 0.00 0.00 53 1025.7
20260502001544 53 108 0.0 0.0 0.00 0.00 0.00 51 1025.7
20260502000043 55 108 0.0 0.0 0.00 0.00 0.00 49 1025.7
20260501234543 57 108 0.0 0.0 0.00 0.00 0.00 44 1025.7
20260501233046 58 108 0.0 0.0 0.00 0.00 0.00 43 1025.7
20260501231543 59 108 0.0 0.0 0.00 0.00 0.00 39 1025.7
20260501230041 60 108 0.0 0.0 0.00 0.00 0.00 37 1025.7
20260501224522 60 109 0.0 3.5 0.00 0.00 0.00 37 1025.7
20260501223022 61 110 0.0 0.9 0.00 0.00 0.00 36 1025.7
20260501221521 61 110 0.0 3.5 0.00 0.00 0.00 37 1025.7
20260501220021 61 79 0.0 1.7 0.00 0.00 0.00 35 1025.7
20260501214520 62 79 0.0 6.1 0.00 0.00 0.00 35 1025.7
20260501213030 62 325 0.0 0.9 0.00 0.00 0.00 36 1025.7
20260501211526 62 38 0.0 4.3 0.00 0.00 0.00 35 1025.7
20260501210035 62 308 0.9 4.3 0.00 0.00 0.00 35 1025.7
20260501204522 62 54 0.0 5.2 0.00 0.00 0.00 36 1025.7
20260501203016 62 77 0.9 5.2 0.00 0.00 0.00 36 1025.7
20260501201519 63 88 0.0 6.1 0.00 0.00 0.00 37 1025.7
20260501200018 62 26 0.0 5.2 0.00 0.00 0.00 38 1025.7
20260501194519 62 71 2.6 7.0 0.00 0.00 0.00 38 1025.7
20260501193012 62 81 0.0 6.1 0.00 0.00 0.00 37 1025.7
20260501191509 62 26 0.0 5.2 0.00 0.00 0.00 40 1025.7